Regional Weather Roundup
Issued by NWS

Home | Current Version | Previous Version | Graphics & Text | Print | Product List | Glossary On
Versions: 1 2 3 4 5 6 7 8 9 10 11 12 13 14 15 16 17 18 19 20 21 22 23 24 25 26 27 28 29 30 31 32 33 34 35 36 37 38 39 40 41 42 43 44 45 46 47 48 49 50
018
ASUS43 KMKX 280821
RWRWI

WISCONSIN REGIONAL WEATHER ROUNDUP
NATIONAL WEATHER SERVICE MILWAUKEE/SULLIVAN WI
300 AM CDT TUE MAR 28 2017

NOTE: "FAIR" INDICATES FEW OR NO CLOUDS BELOW 12,000 FEET WITH NO
SIGNIFICANT WEATHER AND/OR OBSTRUCTIONS TO VISIBILITY.

WIZ001-002-006>008-014>016-023>028-280900-
NORTHWEST WISCONSIN

CITY           SKY/WX    TMP DP  RH WIND       PRES   REMARKS
SUPERIOR ARPT  CLEAR     26  26  99 CALM      30.09S
ASHLAND        CLEAR     25  24  96 CALM      30.09R FOG
HAYWARD        CLEAR     27  24  89 NE5       30.07R WCI  22
SIREN          CLEAR     29  27  95 CALM      30.07R
CUMBERLAND     CLEAR     32  30  93 CALM      30.06R
RICE LAKE      CLEAR     29  29  99 CALM      30.07S FOG
CHETEK         CLEAR     29  29 100 CALM      30.06S
LADYSMITH      CLEAR     30  28  94 CALM      30.07S
EAU CLAIRE     FOG       28  27  96 CALM      30.05S VSB 1/2
MENOMONIE      CLEAR     31  31  99 W5        30.06R WCI  27
NEW RICHMOND   CLEAR     33  33 100 CALM      30.07R FOG
OSCEOLA        CLEAR     30  30 100 CALM      30.10R
$$

WIZ003>005-009-010-017-018-280900-
NORTH CENTRAL WISCONSIN

CITY           SKY/WX    TMP DP  RH WIND       PRES   REMARKS
MANITOWISH WTR CLEAR     24  24 100 CALM      30.04S
ARBOR VITAE    FOG       27  26  96 CALM      30.04R VSB 1/2
WOODRUFF       FOG       27  26  96 CALM      30.04R VSB 1/2
RHINELANDER    PTCLDY    24  23  96 CALM      30.05R FOG
EAGLE RIVER    CLEAR     26  26 100 CALM      30.04R
LAND O LAKES   CLEAR     25  25  98 CALM      30.06R
PHILLIPS       CLEAR     24  24 100 CALM      30.05R
TOMAHAWK       CLEAR     24  23  96 CALM      30.06R
MEDFORD        CLEAR     28  27  98 CALM      30.04R
MERRILL        CLEAR     25  25 100 CALM      30.06R
$$

WIZ029-030-035-036-043>047-280900-
CENTRAL WISCONSIN

CITY           SKY/WX    TMP DP  RH WIND       PRES   REMARKS
WAUSAU         CLEAR     29  28  96 CALM      30.04R FOG
MOSINEE        FOG       32  32 100 CALM      30.05S VSB 3/4
MARSHFIELD     FOG       31  30  96 NW5       30.04R VSB 3/4 WCI  26
STEVENS POINT  CLOUDY    37  37 100 CALM      30.05S
WAUPACA        CLOUDY    42  40  93 CALM      30.06R
WAUTOMA        CLOUDY    41  38  89 NE5       30.06R
WISC RAPIDS    CLOUDY    41  39  93 NE5       30.06S
CAMP DOUGLAS   CLOUDY    41  39  93 N3        30.04S
$$

WIZ011>013-019>022-031-037>040-048>050-280900-
NORTHEAST WISCONSIN

CITY           SKY/WX    TMP DP  RH WIND       PRES   REMARKS
ANTIGO         FOG       28  28 100 CALM      30.04S VSB 3/4
SHAWANO        FOG       35  33  93 CALM      30.06R VSB 1/2
OCONTO         MOCLDY    29  29  99 CALM      30.05S
STURGEON BAY   PTCLDY    34  33  96 NW5       30.02R WCI  30
GREEN BAY      CLOUDY    37  36  96 NW3       30.05R
MANITOWOC      CLOUDY    39  37  92 NW3       30.04S
APPLETON       CLOUDY    37  37 100 NW5       30.03R WCI  34
CLINTONVILLE   CLOUDY    39  36  87 CALM      30.05S
OSHKOSH        CLOUDY    40  37  89 NW5       30.04R
$$

WIZ032>034-041-042-053>061-280900-
SOUTHWEST WISCONSIN

CITY           SKY/WX    TMP DP  RH WIND       PRES   REMARKS
LA CROSSE      CLOUDY    39  38  96 NW8       30.05S WCI  33
SPARTA         CLOUDY    40  38  94 N5        30.06S
VIROQUA        CLOUDY    41  41  99 CALM      30.03R
BOSCOBEL       CLOUDY    46  42  86 NE3       30.04R
PRAIRIE DU CHI CLOUDY    45  42  89 NW3       30.03S
PLATTEVILLE    CLOUDY    45  45 100 E5        30.01F
$$

WIZ056-057-062-063-064-067-068-280900-
SOUTH CENTRAL WISCONSIN

CITY           SKY/WX    TMP DP  RH WIND       PRES   REMARKS
REEDSBURG      CLOUDY    41  41 100 NE3       30.03F FOG
BARABOO/DELLS  CLOUDY    41  40  96 NE6       30.03F
LONE ROCK      CLOUDY    45  42  89 NE5       30.03S FOG
MINERAL POINT  CLOUDY    45  45 100 N5        30.00F FOG
MADISON        CLOUDY    42  41  96 N7        30.03R FOG
MIDDLETON      CLOUDY    44  44 100 NE8       30.03R
WATERTOWN      CLOUDY    40  39  97 N7        30.03R
MONROE         FOG       43  43 100 NE3       30.01R VSB 1/4
JANESVILLE     CLOUDY    43  43 100 CALM      30.01R FOG
$$

WIZ051-052-058>065-066-070>072-280900-
SOUTHEAST WISCONSIN

CITY           SKY/WX    TMP DP  RH WIND       PRES   REMARKS
MILWAUKEE      CLOUDY    40  35  83 N8        30.02S WCI  34
WAUKESHA       CLOUDY    36  34  93 N6        30.03R WCI  31
MILWAUKEE/TIMM CLOUDY    37  34  87 N3        30.03R
RACINE         CLOUDY    38  34  85 N12       30.03R WCI  30
KENOSHA        CLOUDY    39  35  86 N7        30.02R WCI  34
FOND DU LAC    CLOUDY    40  36  86 CALM      30.04R
SHEBOYGAN      CLOUDY    38  35  89 N5        30.03R WCI  34
WEST BEND      CLOUDY    37  36  93 CALM      30.03R
JUNEAU         CLOUDY    39  37  90 N5        30.05R
$$

LSZ147-162-280900-
LAKE SUPERIOR

STATION/POSITION TIME  TEMP    WIND        PRES    WAVE
                       AIR SEA DIR/SP/G            HT/PER
                 (UTC) (F)     (DEG/KT/KT) (MB)    (FT/S)
DEVILS ISLAND    0800   37     210/  5/  5 1018.9R
PORT WING        0740   29      CALM  /  2 1018.6R
SAXON HARBOR     0730   27     200/  3/  3 1018.3S
$$

LMZ867-665-643>646-280900-
LAKE MICHIGAN

STATION/POSITION TIME  TEMP    WIND        PRES    WAVE
                       AIR SEA DIR/SP/G            HT/PER
                 (UTC) (F)     (DEG/KT/KT) (MB)    (FT/S)
CHAMBERS ISLAND  0740   33     330/  2/  4 1016.9R
NORTHPORT PIER   0740   34     320/  4/  6 1017.3R
SISTER BAY       0606   34     350/  6/  6   N/A
KEWAUNEE LAKESHO 0754   38     330/  5/  7 1016.5S
SHEBOYGAN LAKESH 0800   39     330/  8/ 10 1017.4R
PORT WASHINGTON  0730   39     360/  2/  6 1017.6S
MILWAUKEE LAKESH 0800   39     360/  8/ 10   N/A
KENOSHA   LAKESH 0800   39     360/ 13/ 16 1016.3
$$

TC  - TEMPERATURE IN CELSIUS
VSB - VISIBILITY IN STATUTE MILES
WCI - WIND CHILL INDEX
HX  - HEAT INDEX





USA.gov is the U.S. government's official web portal to all federal, state and local government web resources and services.